Location: Morisset
(33.1080°S, 151.4871°E)
Time: 08:27:24
(UTC+00:00)

Cosmos 1726 - Pass Details

Date: 29 October 2020
Orbit: 480 x 500 km, 82.5° (Epoch: 27 November)

Event Time Altitude Azimuth Distance (km) Brightness Sun altitude
Exits shadow 18:27:56 - 332° (NNW) 2,382 5.1 -6.5°
Reaches altitude 10° 18:29:49 10° 322° (NW) 1,662 4.3 -6.2°
Maximum altitude 18:33:02 29° 259° (W) 915 3.0 -5.5°
Drops below altitude 10° 18:36:18 10° 197° (SSW) 1,689 4.9 -4.9°
Sets 18:38:37 0° 186° (S) 2,582 5.9 -4.4°
